Probability
0 0 0 0 0 0 0 0 0 0 0 0 0 0 0 0 0 0 0 0 0 0 3 3 6 10 10 10 13 10 10 3 0 0 0 0 0 0 0 0 3 0 3
0 0 0 0 0 0 0 0 0 0 0 0 0 0 0 0 0 0 0 0 0 0 3 3 3 6 6 10 10 10 6 3 3 0 0 0 0 0 0 0 0 0 0
0 0 0 0 0 0 0 0 0 0 0 0 0 0 0 0 0 0 0 0 0 0 0 0 3 3 3 6 10 10 10 6 3 3 3 0 0 0 0 0 0 0 0
0 0 0 0 0 0 0 0 0 0 0 0 0 0 0 0 0 0 0 0 0 0 0 0 0 3 3 3 3 3 6 6 3 3 3 3 0 0 0 0 0 0 0
0 0 0 0 0 0 0 0 0 0 0 0 0 0 0 0 0 0 0 0 0 0 0 0 0 0 0 0 3 3 3 3 3 3 3 3 3 0 0 0 0 0 0
0 0 0 0 0 0 0 0 0 0 0 0 0 0 0 0 0 0 0 0 0 0 0 0 0 0 0 0 0 0 0 3 3 3 3 3 3 3 0 0 0 0 0
0 0 0 0 0 0 0 0 0 0 0 0 0 0 0 0 0 0 0 0 0 0 0 0 0 0 0 0 0 0 0 0 0 3 3 3 3 3 3 3 0 0 0
0 0 0 0 0 0 0 0 0 0 0 0 0 0 0 0 0 0 0 0 0 0 0 0 0 0 0 0 0 0 0 0 0 0 3 3 3 0 0 0 3 3 0
0 0 0 0 0 0 0 0 0 0 0 0 0 0 0 0 0 0 0 0 0 0 0 0 0 0 0 0 0 0 0 0 0 0 0 0 0 0 0 0 0 0 0
0 0 0 0 0 0 0 0 0 0 0 0 0 0 0 0 0 0 0 0 0 0 0 0 0 0 0 0 0 0 0 0 0 0 0 0 0 0 0 0 3 0 0
0 0 0 0 0 0 0 0 0 0 0 0 0 0 0 0 0 0 0 0 0 0 0 0 0 0 0 0 0 0 0 0 0 0 0 0 0 0 0 0 0 0 0
0 0 0 0 0 0 0 0 0 0 0 0 0 0 0 0 0 0 0 0 0 0 0 0 0 0 0 0 0 0 0 0 0 0 0 0 0 0 0 0 0 0 0
0 0 0 0 0 0 0 0 0 0 0 0 0 0 0 0 0 0 0 0 0 0 0 0 0 0 0 0 0 0 0 0 0 0 0 0 0 0 0 0 0 0 0
0 0 0 0 0 0 0 0 0 0 0 0 0 0 0 0 0 0 0 0 0 0 0 0 0 0 0 0 0 0 0 0 0 0 0 0 0 0 0 0 0 0 0
0 0 0 0 0 0 0 0 0 0 0 0 0 0 0 0 0 0 0 0 0 0 0 0 0 0 0 0 0 0 0 0 0 0 0 0 0 0 0 0 0 0 0
0 0 0 0 0 0 0 0 0 0 0 0 0 0 0 0 0 0 0 0 0 0 0 0 0 0 0 0 0 0 0 0 0 0 0 0 0 0 0 0 0 0 0
0 0 0 0 0 0 0 0 0 0 0 0 0 0 0 0 0 0 0 0 0 0 0 0 0 0 0 0 0 0 0 0 0 0 0 0 0 0 0 0 0 0 0
0 0 0 0 0 0 0 0 0 0 0 0 0 0 0 0 0 0 0 0 0 0 0 0 0 0 0 0 0 0 0 0 0 0 0 0 0 0 0 0 0 0 0
0 0 0 0 0 0 0 0 0 0 0 0 0 0 0 0 0 0 0 0 0 0 0 0 0 0 0 0 0 0 0 0 0 0 0 0 0 0 0 0 0 0 0
0 0 0 0 0 0 0 0 0 0 0 0 0 0 0 0 0 0 0 0 0 0 0 0 0 0 0 0 0 0 0 0 0 0 0 0 0 0 0 0 0 0 0
0 0 0 0 0 0 0 0 0 0 0 0 0 0 0 0 0 0 0 0 0 0 0 0 0 0 0 0 0 0 0 0 0 0 0 0 0 0 0 0 0 0 0
0 0 0 0 0 0 0 0 0 0 0 0 0 0 0 0 0 0 0 0 0 0 0 0 0 0 0 0 0 0 0 0 0 0 0 0 0 0 0 0 0 0 0
0 0 0 0 0 0 0 0 0 0 0 0 0 0 0 0 0 0 0 0 0 0 0 0 0 0 0 0 0 0 0 0 0 0 0 0 0 0 0 0 0 0 0
0 0 0 0 0 0 0 0 0 0 0 0 0 0 0 0 0 0 0 0 0 0 0 0 0 0 0 0 0 0 0 0 0 0 0 0 0 0 0 0 0 0 0
0 0 0 0 0 0 0 0 0 0 0 0 0 0 0 0 0 0 0 0 0 0 0 0 0 0 0 0 0 0 0 0 0 0 0 0 0 0 0 0 0 0 0
0 0 0 0 0 0 0 0 0 0 0 0 0 0 0 0 0 0 0 0 0 0 0 0 0 0 0 0 0 0 0 0 0 0 0 0 0 0 0 0 0 0 0
Height
5815 5815 5815 5815 5814 5814 5813 5813 5812 5811 5809 5808 5806 5805 5803 5801 5799 5797 5795 5793 5791 5788 5786 5784 5782 5780 5778 5776 5775 5773 5772 5771 5770 5769 5769 5768 5768 5768 5768 5767 5767 5767 5767
5809 5809 5809 5808 5808 5808 5807 5806 5805 5804 5802 5801 5799 5798 5796 5794 5792 5789 5787 5785 5782 5779 5777 5774 5772 5770 5768 5766 5763 5762 5760 5759 5758 5758 5757 5757 5757 5756 5756 5756 5756 5756 5756
5802 5802 5802 5802 5801 5800 5800 5799 5798 5796 5795 5793 5792 5790 5788 5785 5783 5781 5778 5775 5773 5770 5767 5764 5762 5759 5757 5754 5752 5750 5748 5746 5746 5745 5744 5744 5744 5744 5744 5743 5743 5743 5744
5795 5795 5795 5794 5794 5793 5792 5791 5790 5789 5787 5785 5784 5781 5779 5777 5774 5771 5768 5765 5762 5759 5756 5753 5750 5747 5745 5742 5740 5737 5735 5733 5732 5731 5731 5730 5730 5730 5730 5730 5730 5730 5730
5788 5788 5788 5787 5786 5785 5784 5783 5782 5780 5779 5777 5775 5773 5770 5767 5764 5761 5758 5755 5751 5748 5745 5741 5738 5735 5732 5729 5726 5724 5722 5719 5718 5717 5716 5715 5715 5715 5715 5715 5715 5715 5716
5780 5780 5780 5779 5778 5777 5776 5775 5773 5771 5769 5767 5766 5763 5761 5758 5754 5751 5748 5744 5741 5737 5733 5729 5726 5722 5719 5716 5713 5710 5707 5705 5703 5701 5700 5700 5699 5698 5698 5698 5699 5699 5700
5773 5772 5772 5771 5770 5769 5767 5766 5764 5762 5759 5757 5756 5754 5751 5748 5745 5741 5737 5733 5729 5725 5721 5716 5713 5709 5705 5702 5698 5695 5692 5689 5687 5685 5684 5682 5682 5681 5681 5681 5681 5682 5683
5765 5764 5763 5762 5761 5760 5758 5756 5754 5752 5750 5747 5744 5742 5741 5740 5735 5731 5727 5722 5718 5713 5708 5704 5699 5695 5691 5688 5684 5680 5676 5673 5670 5668 5666 5665 5664 5663 5663 5663 5664 5664 5665
5756 5755 5754 5753 5752 5751 5749 5747 5744 5742 5740 5737 5733 5730 5728 5726 5725 5722 5716 5711 5706 5701 5695 5690 5686 5681 5677 5673 5669 5665 5661 5657 5654 5652 5650 5648 5647 5646 5646 5645 5645 5646 5646
5748 5747 5745 5744 5743 5741 5739 5737 5734 5732 5729 5726 5723 5719 5715 5712 5709 5708 5706 5700 5694 5688 5682 5677 5672 5667 5662 5658 5654 5650 5645 5642 5638 5636 5633 5632 5630 5629 5628 5627 5627 5627 5627
5739 5738 5737 5735 5734 5732 5729 5727 5724 5721 5718 5715 5711 5708 5704 5700 5695 5692 5690 5688 5682 5676 5669 5664 5658 5653 5647 5642 5638 5634 5629 5626 5622 5619 5617 5614 5613 5611 5609 5608 5607 5608 5608
5730 5729 5727 5726 5724 5721 5719 5716 5713 5710 5706 5703 5699 5695 5691 5687 5683 5678 5675 5672 5669 5664 5658 5651 5645 5639 5633 5627 5622 5618 5613 5610 5606 5602 5600 5597 5595 5593 5591 5590 5589 5589 5589
5720 5719 5717 5715 5713 5711 5708 5705 5702 5698 5695 5691 5687 5683 5678 5673 5669 5664 5660 5656 5653 5651 5645 5639 5631 5624 5618 5612 5607 5602 5598 5594 5589 5586 5582 5579 5577 5574 5572 5571 5570 5570 5570
5710 5709 5707 5705 5702 5700 5697 5694 5690 5687 5683 5679 5674 5670 5665 5661 5656 5650 5645 5640 5637 5636 5632 5626 5618 5610 5603 5597 5592 5587 5583 5578 5573 5569 5565 5561 5558 5555 5553 5551 5551 5551 5552
5699 5698 5696 5694 5691 5688 5685 5682 5679 5675 5671 5666 5662 5657 5653 5648 5643 5637 5631 5625 5620 5617 5617 5612 5604 5596 5588 5583 5577 5572 5567 5562 5557 5553 5548 5544 5539 5536 5534 5533 5533 5533 5535
5689 5687 5685 5682 5679 5677 5673 5670 5667 5663 5659 5654 5649 5645 5640 5635 5630 5624 5618 5612 5605 5599 5597 5595 5589 5582 5575 5569 5563 5557 5552 5547 5543 5537 5532 5527 5523 5519 5517 5515 5515 5516 5517
5677 5675 5673 5671 5668 5665 5662 5658 5654 5650 5646 5641 5636 5632 5627 5621 5617 5611 5605 5599 5592 5585 5580 5580 5574 5567 5561 5555 5550 5544 5538 5533 5529 5523 5518 5513 5509 5505 5502 5500 5499 5499 5500
5666 5664 5662 5659 5656 5653 5649 5646 5642 5638 5633 5629 5624 5619 5614 5609 5603 5598 5592 5586 5580 5573 5566 5564 5561 5554 5548 5542 5537 5531 5526 5521 5516 5511 5505 5501 5496 5491 5488 5485 5484 5483 5484
5655 5653 5650 5647 5644 5641 5637 5633 5629 5625 5620 5616 5611 5606 5601 5596 5591 5585 5579 5574 5567 5561 5554 5549 5546 5542 5536 5530 5525 5520 5514 5509 5504 5498 5493 5489 5484 5479 5475 5472 5470 5469 5469
5643 5641 5638 5635 5632 5628 5625 5621 5617 5613 5608 5604 5599 5594 5588 5583 5578 5573 5567 5562 5555 5549 5543 5538 5534 5529 5524 5518 5512 5507 5504 5498 5493 5487 5482 5477 5472 5468 5463 5460 5458 5457 5456
5632 5629 5626 5623 5620 5616 5613 5609 5605 5601 5597 5592 5587 5582 5577 5572 5566 5561 5555 5550 5544 5538 5532 5527 5522 5518 5512 5507 5501 5496 5492 5488 5483 5477 5472 5467 5462 5458 5454 5450 5447 5446 5446
5620 5617 5614 5611 5608 5605 5601 5598 5594 5590 5585 5581 5576 5572 5567 5561 5556 5550 5544 5539 5533 5527 5521 5516 5512 5507 5501 5496 5491 5486 5481 5477 5474 5470 5464 5460 5454 5450 5446 5442 5440 5439 5439
5608 5606 5603 5600 5597 5594 5590 5587 5582 5578 5574 5570 5565 5561 5556 5551 5545 5540 5535 5529 5523 5516 5511 5506 5501 5496 5491 5486 5481 5477 5472 5467 5463 5459 5454 5451 5447 5443 5439 5436 5434 5434 5434
5598 5595 5592 5590 5586 5583 5579 5576 5572 5568 5564 5559 5555 5550 5545 5541 5535 5530 5525 5520 5514 5508 5502 5497 5492 5487 5482 5477 5472 5467 5463 5459 5456 5452 5447 5444 5441 5438 5434 5432 5431 5430 5430
5587 5585 5582 5579 5576 5572 5569 5565 5561 5557 5554 5549 5545 5540 5535 5530 5525 5520 5515 5511 5506 5501 5495 5489 5484 5479 5474 5469 5463 5459 5455 5452 5450 5447 5442 5438 5435 5433 5431 5429 5428 5426 5427
5577 5575 5572 5569 5565 5562 5558 5555 5551 5548 5544 5540 5535 5530 5525 5520 5515 5509 5505 5501 5497 5492 5487 5483 5478 5473 5468 5462 5457 5453 5449 5445 5442 5440 5437 5433 5430 5428 5428 5427 5425 5424 5425
Wind_Speed
29 29 29 30 30 30 31 31 31 32 32 32 33 34 34 35 36 36 37 37 38 39 40 40 41 42 43 43 44 44 45 46 46 47 47 47 47 47 47 47 47 46 46
30 31 31 31 31 31 32 33 33 33 33 34 34 35 35 36 37 38 39 39 40 41 42 42 43 43 44 45 46 47 47 48 49 49 49 49 49 50 50 50 50 49 49
32 32 32 32 33 33 34 34 34 34 35 35 36 36 37 38 39 40 41 41 42 43 44 44 45 46 47 48 48 49 50 50 51 51 51 51 51 52 52 52 52 52 52
33 33 33 33 34 35 35 35 35 35 36 37 37 38 39 40 41 42 42 43 44 45 46 47 48 49 50 51 51 51 52 53 54 54 54 54 54 54 54 54 55 55 54
33 34 34 34 35 36 36 37 37 37 38 39 39 40 41 42 42 43 44 44 45 46 47 48 49 50 51 52 53 53 54 55 55 56 57 57 57 57 57 57 57 58 57
34 34 35 35 36 37 37 38 38 39 40 40 41 41 42 42 43 44 45 46 47 48 49 50 51 51 52 53 54 55 55 56 57 58 59 60 60 60 61 60 60 59 59
35 35 35 36 37 37 38 39 39 40 41 42 42 42 43 43 44 45 47 48 49 50 51 52 52 53 53 54 55 56 57 58 58 59 61 62 62 62 62 61 61 61 61
35 35 36 37 38 38 39 40 41 41 42 43 43 44 44 44 46 47 48 49 50 51 52 53 54 55 55 55 57 58 58 58 59 60 61 62 62 62 62 62 63 63 63
36 36 37 37 38 39 40 41 42 43 43 44 45 46 47 47 47 47 48 49 51 52 53 54 55 56 56 57 57 58 58 59 59 59 59 60 61 63 63 63 64 65 65
36 37 37 38 39 40 41 42 43 44 45 45 46 48 49 50 50 49 49 50 52 52 53 54 55 56 57 58 59 59 61 60 60 59 60 61 61 62 64 65 65 64 65
37 38 38 39 41 42 43 44 45 46 46 47 49 50 51 51 52 52 51 51 52 52 53 54 55 56 57 59 60 61 61 60 60 60 61 61 61 62 63 63 64 65 64
38 39 40 41 42 43 44 45 46 47 48 49 50 51 52 53 53 54 54 53 52 52 53 55 56 57 59 60 60 59 59 59 59 60 60 61 61 62 62 62 63 63 63
40 41 42 43 44 45 45 46 47 48 49 50 51 52 53 53 54 54 55 55 54 53 54 55 57 58 59 60 59 59 58 58 58 59 60 61 61 61 62 62 62 61 61
42 43 44 45 45 46 46 47 48 48 50 51 51 52 52 53 54 55 57 57 57 55 55 55 57 58 59 59 58 59 59 59 59 59 59 60 60 60 60 59 59 58 57
43 44 45 46 46 47 47 48 48 49 50 51 52 53 53 53 55 56 57 58 59 58 56 55 56 56 57 57 58 59 58 58 57 56 56 57 57 57 57 56 56 54 54
44 45 46 46 47 47 48 48 49 50 51 52 53 53 53 54 56 57 58 59 60 60 59 56 55 55 55 56 57 57 56 54 53 53 54 54 54 53 53 53 53 52 53
44 44 45 46 47 47 48 49 50 51 51 52 53 53 54 55 55 56 57 58 58 59 59 56 54 53 54 54 54 54 52 52 51 51 51 51 50 49 49 49 50 50 51
43 44 45 46 47 48 49 50 50 51 51 52 52 53 54 55 55 56 56 57 57 57 57 54 52 52 52 52 51 50 50 49 49 49 49 48 47 47 46 45 46 47 48
44 44 46 47 47 48 49 49 50 50 51 52 52 53 53 54 54 54 55 55 55 55 54 53 51 51 50 50 49 48 47 46 46 47 45 45 45 44 43 43 42 42 43
44 45 46 47 47 48 48 49 49 50 51 51 51 51 52 52 52 52 53 53 53 52 52 51 50 49 49 48 48 46 44 43 43 43 42 42 41 40 39 37 37 37 37
44 46 46 46 46 47 48 48 49 49 50 50 50 50 50 50 50 51 51 50 50 50 49 49 47 46 45 44 44 43 41 40 39 39 38 37 35 33 32 32 31 30 30
45 45 45 45 46 47 47 48 48 48 48 48 48 48 48 48 48 48 48 48 48 48 47 46 45 44 43 42 41 40 39 37 36 35 34 31 29 29 28 27 26 25 25
44 44 44 44 45 46 47 47 47 47 47 47 46 46 47 47 47 47 47 47 47 47 46 44 43 42 40 39 39 37 36 35 33 31 29 28 27 26 24 22 20 20 20
43 44 43 43 44 45 46 46 46 46 46 45 45 46 46 47 47 46 46 45 44 42 42 42 41 39 38 37 37 36 34 32 29 27 27 26 25 23 20 18 17 17 17
42 43 43 43 44 45 45 45 45 44 43 43 44 45 45 46 46 45 44 42 40 40 40 39 38 37 36 35 34 33 30 27 26 26 26 25 22 19 16 15 14 13 13
41 41 42 43 43 44 44 44 43 43 42 42 43 44 45 45 44 42 41 39 39 38 37 35 34 33 33 31 30 28 26 25 24 24 23 21 19 16 15 14 14 12 12
Wind_Direction
267 269 270 271 271 272 274 275 277 279 279 280 281 282 283 284 284 284 285 285 285 285 283 282 282 281 281 280 279 278 277 275 275 274 274 273 273 272 272 272 272 272 272
268 269 270 271 271 273 275 276 278 279 280 281 282 283 283 284 285 285 286 286 286 285 284 283 283 283 282 282 281 279 278 277 276 274 274 273 273 273 272 272 271 271 271
269 269 270 270 271 273 275 277 278 279 280 282 283 283 284 285 285 286 286 286 286 286 284 284 283 283 283 282 282 281 279 277 276 275 274 274 274 272 272 271 271 270 270
269 269 270 271 273 274 276 278 279 280 281 282 283 284 285 286 286 287 287 287 287 286 285 285 284 283 283 282 282 281 279 277 276 275 275 274 274 273 271 271 270 270 270
269 270 271 272 274 276 277 278 279 280 281 282 283 284 285 287 287 288 288 287 287 287 287 286 285 284 283 283 282 281 280 278 276 275 274 274 274 273 272 271 270 269 269
270 271 272 274 275 276 278 279 281 281 282 282 283 285 286 287 288 288 288 288 289 289 288 288 287 286 284 283 283 282 281 280 278 276 275 273 273 273 271 271 270 269 268
270 273 274 275 276 277 279 280 282 283 283 284 284 285 287 288 289 290 290 290 290 290 290 289 288 287 286 285 285 284 283 281 279 278 276 274 273 272 271 270 269 268 266
272 274 275 275 276 278 280 281 283 284 285 286 286 286 286 287 288 289 289 290 290 290 290 289 289 288 287 287 286 285 285 282 281 279 278 276 274 273 271 270 269 268 266
273 275 275 276 277 279 281 282 284 284 285 286 288 289 289 289 288 289 289 290 290 290 290 290 289 288 288 287 287 286 286 284 283 281 280 278 276 274 273 272 271 268 266
274 275 276 277 279 281 282 283 284 285 286 287 288 289 290 291 291 290 290 291 291 291 291 291 290 289 289 288 288 287 286 285 283 282 281 280 278 276 275 273 271 270 267
274 275 277 279 280 282 283 284 285 286 287 288 289 290 291 292 292 292 292 292 292 292 292 292 291 291 290 290 289 289 287 285 283 282 282 281 280 278 276 274 272 270 268
274 275 278 280 282 283 284 285 286 287 287 288 289 290 291 292 292 293 293 293 292 292 292 293 293 292 291 291 290 290 288 287 285 284 282 281 280 278 276 274 273 271 268
274 276 278 281 283 284 285 286 287 288 288 289 290 291 292 292 293 293 293 294 294 293 293 293 293 293 292 292 291 290 289 288 287 286 285 283 281 280 277 274 273 271 269
275 277 279 282 284 284 285 287 287 288 289 290 291 291 292 293 293 294 295 295 294 294 294 294 294 293 293 292 291 291 291 290 288 287 286 285 283 281 278 275 273 270 268
277 278 280 282 284 285 286 287 288 289 290 290 291 292 292 293 294 295 296 296 296 296 296 296 295 294 293 292 292 292 292 291 290 289 289 288 285 282 277 274 271 269 267
277 279 281 283 284 285 286 287 288 289 290 291 292 292 293 293 294 295 296 297 298 298 298 298 296 295 294 294 294 294 293 292 291 291 290 290 287 283 279 275 271 268 267
279 280 282 283 284 286 287 288 289 289 290 291 292 292 293 294 295 296 297 298 299 299 299 299 297 296 296 296 296 295 294 294 293 292 292 291 288 285 282 278 272 270 268
279 281 283 283 284 286 287 288 289 290 291 292 292 293 294 295 296 296 297 298 299 300 300 299 298 297 297 297 297 296 295 295 294 293 293 291 289 287 284 280 275 272 269
278 281 283 283 285 286 288 289 290 290 291 292 293 294 295 295 296 297 297 298 299 300 300 300 299 299 298 298 297 296 296 295 294 294 294 293 291 289 287 282 278 275 271
279 282 283 283 285 286 289 289 290 291 292 293 294 294 296 296 297 297 298 299 300 300 300 300 301 300 300 300 299 297 297 296 296 296 296 295 293 291 289 284 279 276 272
279 282 283 284 285 287 289 290 291 291 293 293 294 295 296 297 298 299 299 299 300 301 301 301 302 302 302 301 300 299 298 296 297 298 296 296 295 294 290 286 281 276 272
279 282 283 284 285 287 289 290 291 292 293 294 294 295 296 298 299 300 300 301 301 302 302 302 302 303 303 302 302 302 300 299 298 297 297 297 298 298 295 290 283 276 271
280 282 283 284 286 287 289 291 292 293 294 294 295 295 296 298 299 300 301 301 302 302 303 303 303 304 303 303 303 303 302 302 302 301 299 299 300 299 297 292 282 275 271
280 282 283 284 286 288 290 291 292 293 294 295 295 296 297 298 299 299 300 302 303 303 303 303 304 304 304 303 304 304 302 303 303 303 304 304 302 300 297 290 284 277 267
280 282 283 285 287 289 290 291 292 293 294 295 296 297 298 299 300 300 301 302 302 302 303 303 303 304 305 304 304 305 304 303 304 306 305 304 303 298 293 289 285 273 257
281 284 285 286 288 289 290 291 291 293 294 295 296 298 299 300 300 300 300 301 302 303 302 301 303 305 306 305 305 306 306 306 307 308 308 306 303 299 294 291 282 266 251